Weather History for Jefferson, GA

Change the Weather History Date:

Saturday, March 2, 2013

  Actual Average (KGVL) Record (KGVL)
Temperature  
Mean Temperature 38 °F 49 °F  
Max Temperature 44 °F 59 °F 83 °F (1951)
Min Temperature 32 °F 39 °F 20 °F (1980)
Degree Days  
Heating Degree Days 27 16  
Month to date heating degree days 32  
Since 1 July heating degree days 2496  
Cooling Degree Days 0 0  
Month to date cooling degree days 0  
Year to date cooling degree days 0  
Moisture  
Dew Point 20 °F    
Average Humidity 53    
Maximum Humidity 93    
Minimum Humidity 27    
Precipitation  
Precipitation 0.00 in 0.19 in 1.92 in (1971)
Month to date precipitation 0.38  
Year to date precipitation 10.28  
Sea Level Pressure  
Sea Level Pressure 29.92 in    
Wind  
Wind Speed 10 mph (WNW)    
Max Wind Speed 20 mph    
Max Gust Speed 28 mph    
Visibility 10 miles    
Events Rain , Snow    
T = Trace of Precipitation, MM = Missing Value Source: NWS Daily Summary

Daily Weather History Graph

Daily Weather History Graph

Search for Another Location

Airport:

Trip Planner

Search our weather history database for the weather conditions in past years. The results will help you decide how hot, cold, wet, or windy it might be!

Date:

Astronomy

Mar. 02, 2013 Rise Set
Actual Time 7:01 AM EST 6:31 PM EST
Civil Twilight 6:36 AM EST 6:56 PM EST
Nautical Twilight 6:07 AM EST 7:25 PM EST
Astronomical Twilight 5:38 AM EST 7:54 PM EST
Moon 11:53 PM EST (3/2) 9:44 AM EST (3/2)
Length of Visible Light 12h 20m
Length of Day
11h 30m
Waning Gibbous, 74% of the Moon is Illuminated
Mar 2
Waning Gibbous
Mar 4
Last Quarter
Mar 11
New
Mar 19
First Quarter
Mar 27
Full

Hourly Weather History & Observations

Time (EST) Temp. Windchill Dew Point Humidity Pressure Visibility Wind Dir Wind Speed Gust Speed Precip Events Conditions
12:15 AM 37.4 °F 30.8 °F 23.0 °F 56% 29.93 in 10.0 mi WNW 9.2 mph - N/A   Overcast
12:35 AM 37.4 °F 29.3 °F 24.8 °F 60% 29.93 in 10.0 mi WNW 12.7 mph 17.3 mph N/A   Overcast
12:55 AM 37.4 °F 30.3 °F 24.8 °F 60% 29.93 in 10.0 mi WNW 10.4 mph - N/A   Overcast
1:15 AM 37.4 °F 29.3 °F 24.8 °F 60% 29.93 in 10.0 mi WNW 12.7 mph 16.1 mph N/A   Overcast
1:35 AM 35.6 °F 28.6 °F 24.8 °F 65% 29.93 in 10.0 mi WNW 9.2 mph - N/A   Overcast
1:55 AM 35.6 °F 28.6 °F 24.8 °F 65% 29.93 in 10.0 mi WNW 9.2 mph - N/A   Overcast
2:15 AM 35.6 °F 28.6 °F 24.8 °F 65% 29.93 in 10.0 mi WNW 9.2 mph - N/A   Overcast
2:35 AM 35.6 °F 29.9 °F 24.8 °F 65% 29.93 in 10.0 mi WNW 6.9 mph - N/A   Overcast
2:55 AM 35.6 °F 29.2 °F 26.6 °F 70% 29.92 in 10.0 mi WNW 8.1 mph - N/A Rain Light Rain
3:15 AM 35.6 °F 29.9 °F 26.6 °F 70% 29.91 in 10.0 mi West 6.9 mph - N/A   Overcast
3:35 AM 35.6 °F 28.0 °F 26.6 °F 70% 29.90 in 10.0 mi WNW 10.4 mph - N/A   Overcast
3:55 AM 35.6 °F 28.6 °F 26.6 °F 70% 29.90 in 10.0 mi WNW 9.2 mph - N/A   Overcast
4:15 AM 35.6 °F 28.6 °F 26.6 °F 70% 29.90 in 10.0 mi WNW 9.2 mph - N/A   Overcast
4:35 AM 35.6 °F 29.2 °F 26.6 °F 70% 29.89 in 10.0 mi WNW 8.1 mph - N/A   Overcast
4:55 AM 35.6 °F 29.9 °F 26.6 °F 70% 29.89 in 10.0 mi WNW 6.9 mph - N/A   Overcast
5:15 AM 35.6 °F 29.9 °F 26.6 °F 70% 29.90 in 10.0 mi WNW 6.9 mph - N/A Snow Light Snow
5:35 AM 33.8 °F 26.4 °F 26.6 °F 75% 29.90 in 5.0 mi WNW 9.2 mph - N/A Snow Light Snow
5:55 AM 33.8 °F 27.7 °F 32.0 °F 93% 29.90 in 7.0 mi WNW 6.9 mph - N/A Rain Light Rain
6:15 AM 33.8 °F 27.0 °F 28.4 °F 81% 29.89 in 10.0 mi WNW 8.1 mph - N/A   Overcast
6:35 AM 33.8 °F 26.4 °F 26.6 °F 75% 29.90 in 10.0 mi WNW 9.2 mph - N/A   Overcast
6:55 AM 33.8 °F 27.0 °F 26.6 °F 75% 29.90 in 10.0 mi WNW 8.1 mph - N/A   Overcast
7:15 AM 33.8 °F 28.6 °F 26.6 °F 75% 29.90 in 10.0 mi WNW 5.8 mph - N/A   Overcast
7:35 AM 33.8 °F 27.7 °F 26.6 °F 75% 29.91 in 10.0 mi WNW 6.9 mph - N/A   Overcast
7:55 AM 33.8 °F 27.7 °F 26.6 °F 75% 29.91 in 10.0 mi West 6.9 mph - N/A   Overcast
8:15 AM 35.6 °F 29.9 °F 26.6 °F 70% 29.91 in 10.0 mi West 6.9 mph - N/A   Mostly Cloudy
8:35 AM 35.6 °F 29.9 °F 24.8 °F 65% 29.92 in 10.0 mi West 6.9 mph - N/A   Clear
8:55 AM 37.4 °F 32.1 °F 24.8 °F 60% 29.92 in 10.0 mi West 6.9 mph - N/A   Clear
9:15 AM 37.4 °F 32.8 °F 23.0 °F 56% 29.92 in 10.0 mi WNW 5.8 mph - N/A   Clear
9:35 AM 41.0 °F 36.4 °F 21.2 °F 45% 29.92 in 10.0 mi NW 6.9 mph - N/A   Clear
9:55 AM 41.0 °F 33.9 °F 21.2 °F 45% 29.92 in 10.0 mi NW 12.7 mph 17.3 mph N/A   Scattered Clouds
10:15 AM 41.0 °F 33.5 °F 19.4 °F 42% 29.92 in 10.0 mi WNW 13.8 mph - N/A   Scattered Clouds
10:35 AM 42.8 °F 37.5 °F 19.4 °F 39% 29.92 in 10.0 mi WNW 9.2 mph - N/A   Mostly Cloudy
10:55 AM 42.8 °F 37.0 °F 19.4 °F 39% 29.92 in 10.0 mi WNW 10.4 mph - N/A   Overcast
11:15 AM 42.8 °F 36.6 °F 17.6 °F 36% 29.92 in 10.0 mi NW 11.5 mph 17.3 mph N/A   Overcast
11:35 AM 42.8 °F 37.0 °F 17.6 °F 36% 29.91 in 10.0 mi NW 10.4 mph - N/A   Overcast
11:55 AM 42.8 °F 38.6 °F 15.8 °F 34% 29.91 in 10.0 mi WNW 6.9 mph - N/A   Overcast
12:15 PM 42.8 °F 37.5 °F 14.0 °F 31% 29.91 in 10.0 mi NW 9.2 mph 16.1 mph N/A   Overcast
12:35 PM 42.8 °F 35.8 °F 14.0 °F 31% 29.91 in 10.0 mi NW 13.8 mph - N/A   Overcast
12:55 PM 42.8 °F 35.8 °F 14.0 °F 31% 29.91 in 10.0 mi NW 13.8 mph - N/A   Overcast
1:15 PM 42.8 °F 34.8 °F 14.0 °F 31% 29.90 in 10.0 mi NW 17.3 mph - N/A   Overcast
1:35 PM 44.6 °F 37.4 °F 12.2 °F 27% 29.90 in 10.0 mi WNW 16.1 mph 19.6 mph N/A   Overcast
1:55 PM 42.8 °F 34.8 °F 14.0 °F 31% 29.90 in 10.0 mi NW 17.3 mph 23.0 mph N/A   Overcast
2:15 PM 42.8 °F 35.1 °F 14.0 °F 31% 29.90 in 10.0 mi WNW 16.1 mph 26.5 mph N/A   Mostly Cloudy
2:35 PM 42.8 °F 35.4 °F 14.0 °F 31% 29.90 in 10.0 mi WNW 15.0 mph 27.6 mph N/A   Overcast
2:55 PM 41.0 °F 32.5 °F 12.2 °F 31% 29.90 in 10.0 mi WNW 17.3 mph 24.2 mph N/A   Overcast
3:15 PM 41.0 °F 33.5 °F 12.2 °F 31% 29.90 in 10.0 mi NW 13.8 mph 23.0 mph N/A   Mostly Cloudy
3:35 PM 41.0 °F 31.9 °F 14.0 °F 33% 29.90 in 10.0 mi WNW 19.6 mph 25.3 mph N/A   Mostly Cloudy
3:55 PM 41.0 °F 32.5 °F 14.0 °F 33% 29.90 in 10.0 mi NW 17.3 mph 21.9 mph N/A   Scattered Clouds
4:35 PM 39.2 °F 30.5 °F 14.0 °F 36% 29.91 in 10.0 mi WNW 16.1 mph 25.3 mph N/A   Mostly Cloudy
4:55 PM 41.0 °F 32.8 °F 14.0 °F 33% 29.91 in 10.0 mi WNW 16.1 mph 23.0 mph N/A   Scattered Clouds
5:15 PM 39.2 °F 31.6 °F 15.8 °F 39% 29.91 in 10.0 mi NW 12.7 mph - N/A   Scattered Clouds
5:35 PM 39.2 °F 31.2 °F 15.8 °F 39% 29.92 in 10.0 mi WNW 13.8 mph 21.9 mph N/A   Clear
5:55 PM 37.4 °F 30.3 °F 17.6 °F 45% 29.93 in 10.0 mi WNW 10.4 mph - N/A   Scattered Clouds
6:35 PM 35.6 °F 26.6 °F 17.6 °F 48% 29.94 in 10.0 mi WNW 13.8 mph 19.6 mph N/A   Clear
6:55 PM 35.6 °F 28.6 °F 17.6 °F 48% 29.94 in 10.0 mi WNW 9.2 mph 18.4 mph N/A   Clear
7:15 PM 35.6 °F 28.6 °F 19.4 °F 52% 29.94 in 10.0 mi WNW 9.2 mph - N/A   Clear
7:35 PM 33.8 °F 25.8 °F 19.4 °F 56% 29.94 in 10.0 mi WNW 10.4 mph - N/A   Clear
7:55 PM 35.6 °F 28.0 °F 19.4 °F 52% 29.94 in 10.0 mi WNW 10.4 mph - N/A   Clear
8:15 PM 33.8 °F 26.4 °F 19.4 °F 56% 29.96 in 10.0 mi WNW 9.2 mph - N/A   Clear
8:35 PM 33.8 °F 25.3 °F 19.4 °F 56% 29.96 in 10.0 mi NW 11.5 mph - N/A   Clear
8:55 PM 33.8 °F 25.3 °F 19.4 °F 56% 29.96 in 10.0 mi NW 11.5 mph - N/A   Clear
9:15 PM 33.8 °F 25.3 °F 19.4 °F 56% 29.97 in 10.0 mi NW 11.5 mph - N/A   Clear
9:35 PM 33.8 °F 27.0 °F 19.4 °F 56% 29.98 in 10.0 mi NW 8.1 mph 11.5 mph N/A   Clear
9:55 PM 33.8 °F 27.0 °F 19.4 °F 56% 29.98 in 10.0 mi NW 8.1 mph - N/A   Clear
10:15 PM 33.8 °F 25.3 °F 19.4 °F 56% 29.98 in 10.0 mi NW 11.5 mph - N/A   Clear
10:35 PM 33.8 °F 25.3 °F 15.8 °F 48% 29.98 in 10.0 mi NW 11.5 mph 18.4 mph N/A   Clear
10:55 PM 33.8 °F 26.4 °F 15.8 °F 48% 29.98 in 10.0 mi NW 9.2 mph - N/A   Clear
11:15 PM 32.0 °F 25.6 °F 15.8 °F 51% 29.97 in 10.0 mi NW 6.9 mph - N/A   Clear
11:35 PM 32.0 °F 23.6 °F 15.8 °F 51% 29.97 in 10.0 mi NW 10.4 mph - N/A   Clear
11:55 PM 32.0 °F 23.0 °F 14.0 °F 48% 29.96 in 10.0 mi NW 11.5 mph - N/A   Clear